User: anonymous   Login
Location: Antichan
(42.9728°N, 0.6667°E)
Time: 09:50:39
(UTC+00:00)
Language:

CZ-2C R/B - Orbit

View from above orbital plane
View from above orbital plane
View from above satellite
View from above satellite

Ground track
Ground track

The orbit data is extracted from the following two-line orbital elements,

1 31114U 07010B   20304.86876210 -.00000007 +00000-0 +15217-4 0  9993
2 31114 098.2447 148.5555 0058777 231.8073 127.7802 14.19334193702214
Epoch (UTC): 30 October 2020 20:51:01
Eccentricity: 0.0058777
inclination: 98.2447°
perigee height: 785 km
apogee height: 870 km
right ascension of ascending node: 148.5555°
argument of perigee: 231.8073°
revolutions per day: 14.19334193
mean anomaly at epoch: 127.7802°
orbit number at epoch: 70221

The dashed part of the orbit path shows where the satellite is in the earth's shadow,  

DLR